Location: F?ge?el
(45.8833°N, 22.5833°E)
Time: 05:05:30
(UTC+00:00)

PSLV R/B - Pass Details

Date: 17 November 2025
Orbit: 561 x 590 km, 98.0° (Epoch: 04 December)

Event Time Altitude Azimuth Distance (km) Brightness Sun altitude
Rises 16:10:11 0° 139° (SE) 2,761 6.6 -12.9°
Reaches altitude 10° 16:12:30 10° 129° (SE) 1,864 5.7 -13.2°
Maximum altitude 16:16:01 30° 68° (ENE) 1,039 4.1 -13.8°
Drops below altitude 10° 16:19:32 10° 7° (N) 1,866 5.8 -14.4°
Sets 16:21:52 0° 357° (N) 2,765 6.8 -14.8°
